[[{"header":{"parameterUnit":"m.s-1","parameterCategory":1,"la1":30.2991,"la2":30.254,"lo1":-89.0895,"lo2":-89.0444,"dy":0.0017,"dx":0.0017,"nx":28,"ny":28,"refTime":"2023-08-06T03:00:00:Z","depth":0,"parameterNumber":2,"parameterNumberName":"U-component_of_WINDS"},"data":[0,0,0,0,0,0,0,0,0,0,0,0,0,0,0,0,0,0,0,0,0,0,0,0,0,0,0,0,0,0,0,0,0,0,0,0,0,0,0,0,0,0,0,0,0,0,0,0,0,0,0,0,0,0,0,0,0,0,3.5952,3.5953,0,3.6045,3.6046,3.6047,3.6041,3.604,3.6038,3.6037,3.6135,3.6139,3.6143,0,0,0,0,0,0,0,0,0,0,0,0,0,3.5772,3.5775,3.5952,3.5953,3.5954,3.6045,3.6046,3.6048,3.6041,3.6039,3.6038,3.6036,3.6134,3.6139,3.6143,0,0,0,0,0,0,0,0,0,0,0,0,0,3.5856,3.5776,3.5952,3.5962,3.5964,3.6045,3.6046,3.6048,3.6042,3.6039,3.6037,3.6035,3.6132,3.6138,3.6144,3.6222,0,0,3.6162,3.6164,0,0,0,0,0,0,0,0,3.5851,3.5863,3.5959,3.5961,3.5964,3.6029,3.6019,3.6106,3.6042,3.6012,3.6037,3.6034,3.6102,3.611,3.6132,3.6226,3.623,3.6162,3.6166,3.6168,3.617,0,0,0,0,0,0,0,3.5846,3.5859,3.5989,3.5961,3.5963,3.5963,3.5973,3.6035,3.6068,3.6015,3.6014,3.6025,3.6103,3.6127,3.6134,3.6232,3.6162,3.6167,3.6171,3.6173,3.6395,3.6397,0,0,0,0,0,0,3.5837,3.5854,3.5986,3.5992,3.5901,3.5968,3.5979,3.601,3.6067,3.6073,3.6027,3.6025,3.6118,3.6128,3.6138,3.6232,3.6168,3.6174,3.6177,3.6393,3.6396,3.6398,0,0,0,0,0,0,3.5833,3.5849,3.5982,3.5923,3.594,3.5973,3.6009,3.6013,3.6037,3.6076,3.6082,3.6045,3.6116,3.613,3.6201,3.6236,3.6176,3.6182,3.639,3.6394,3.6397,3.6422,0,0,0,0,0,0,3.5828,3.5847,3.5876,3.5923,3.5943,3.6043,3.6011,3.6017,3.6047,3.6045,3.6095,3.6101,3.6116,3.6192,3.6207,3.6243,3.6186,3.6387,3.6391,3.6396,3.6418,3.6426,3.6433,0,0,0,0,0,3.5822,3.588,3.5878,3.5894,3.598,3.6044,3.6056,3.607,3.605,3.608,3.6105,3.61,3.623,3.6199,3.6216,3.6254,3.6385,3.639,3.6395,3.6415,3.6425,3.6433,0,0,0,0,0,0,3.5837,3.5887,3.5884,3.596,3.5998,3.6043,3.6081,3.608,3.6125,3.6121,3.6139,3.615,3.6221,3.6245,3.621,3.6333,3.6305,3.6314,3.6314,3.6323,3.6331,3.6323,3.6191,0,0,0,0,0,3.5849,3.5897,3.5938,3.6001,3.602,3.6048,3.6076,3.6084,3.6125,3.6141,3.6171,3.6212,3.6262,3.6294,3.6342,3.6422,3.6433,3.6457,3.6464,3.647,3.6477,3.6521,3.6532,3.6416,3.6416,3.6415,0,0,3.5875,3.5908,3.5937,3.6005,3.6035,3.6085,3.6061,3.6115,3.6152,3.6149,3.6218,3.6242,3.6288,3.6364,3.6399,3.6386,3.6512,3.6477,3.6481,3.6485,3.6528,3.6539,3.6548,3.6419,3.6419,3.6418,0,0,3.5947,3.5977,3.6032,3.6063,3.6109,3.6127,3.6141,3.6187,3.6202,3.6271,3.627,3.6316,3.6401,3.6434,3.6462,3.6548,3.6545,3.6564,3.6601,3.6644,3.6653,3.6661,3.6691,3.6702,3.6571,3.6571,3.6571,0,3.5973,3.6047,3.6061,3.6115,3.6145,3.6145,3.6202,3.6232,3.6291,3.6313,3.6297,3.6405,3.6436,3.6519,3.654,3.6563,3.6579,3.6557,3.665,3.6659,3.6666,3.6695,3.6707,3.6573,3.6573,3.6572,3.6572,0,3.6077,3.6128,3.6168,3.6225,3.626,3.6315,3.6338,3.6372,3.6378,3.6398,3.6468,3.6506,3.6561,3.6582,3.6589,3.6667,3.6657,3.6646,3.6618,3.6679,3.6706,3.6718,3.6575,3.6575,3.6574,3.6574,0,0,3.616,3.6224,3.6239,3.6264,3.6316,3.6356,3.6412,3.6466,3.6494,3.6536,3.6584,3.6657,3.6647,3.6678,3.6689,3.6726,3.6791,3.6711,3.6712,3.6723,3.688,3.6887,3.6899,3.679,3.6793,3.6794,3.6876,0,3.6236,3.6334,3.6349,3.6435,3.6482,3.6484,3.6532,3.657,3.6591,3.6635,3.6659,3.6709,3.6693,3.6712,3.6749,3.6775,3.6823,3.677,3.6835,3.6837,3.6821,3.6914,3.6922,3.6996,3.6887,3.6888,3.689,0,3.6338,3.6382,3.6472,3.6517,3.6538,3.6581,3.6632,3.6674,3.6717,3.673,3.6766,3.6772,3.683,3.6801,3.6883,3.6846,3.6874,3.6891,3.6895,3.69,3.6866,3.6921,3.7021,3.7031,3.6907,3.6906,3.6904,0,3.6388,3.647,3.6535,3.6557,3.6612,3.6642,3.6666,3.6707,3.6739,3.6784,3.6804,3.6856,3.6884,3.6924,3.6945,3.6921,3.7025,3.6997,3.7037,3.7036,3.7057,3.7056,3.7162,3.7078,3.7077,3.7077,3.7077,0,3.6471,3.6526,3.6558,3.6597,3.666,3.6677,3.6739,3.6763,3.6799,3.6844,3.6849,3.6892,3.6916,3.6963,3.6979,3.7044,3.7057,3.7069,3.7072,3.7068,3.7066,3.7085,3.708,3.708,3.7079,3.7079,3.7078,0,3.6537,3.656,3.6631,3.6677,3.669,3.6734,3.6773,3.6813,3.6834,3.689,3.6905,3.6938,3.6993,3.7017,3.7085,3.7096,3.717,3.7171,3.7155,3.7156,3.7194,3.719,3.7315,3.7332,3.7238,3.7239,3.7239,0,3.6588,3.663,3.6681,3.671,3.6735,3.6784,3.6816,3.6836,3.6869,3.6922,3.6955,3.701,3.7054,3.7142,3.7173,3.7225,3.7226,3.7267,3.7234,3.7228,3.7225,3.7222,3.7226,3.7272,3.7273,3.7274,3.7274,0,3.6675,3.6684,3.673,3.678,3.6817,3.6858,3.6898,3.6922,3.6949,3.6986,3.7042,3.7076,3.7146,3.72,3.7254,3.728,3.7282,3.7285,3.7296,3.7291,3.728,3.7285,3.717,3.7281,3.728,3.728,3.728,3.7279,3.6734,3.6771,3.6813,3.6863,3.6895,3.6933,3.6971,3.6997,3.7044,3.71,3.711,3.7169,3.7213,3.7285,3.7314,3.7361,3.7351,3.7369,3.7373,3.7376,3.7378,3.7274,3.7371,3.7371,3.7371,3.7371,3.7371,0,3.682,3.6847,3.6894,3.6948,3.6989,3.6987,3.7031,3.7064,3.7116,3.7156,3.72,3.7264,3.7317,3.7352,3.7406,3.7437,3.7439,3.7451,3.7448,3.7454,3.7384,3.7368,3.7448,3.7448,3.7448,3.7448,3.7448,3.7448,3.6869,3.6933,3.6948,3.7027,3.7054,3.7111,3.7137,3.7171,3.7203,3.7274,3.7318,3.734,3.7379,3.7435,3.7484,3.7493,3.7513,3.7524,3.7533,3.7467,3.7459,3.7451,3.7436,3.7529,3.7529,3.7598,3.7599,3.7599]},{"header":{"parameterUnit":"m.s-1","parameterCategory":1,"la1":30.2991,"la2":30.254,"lo1":-89.0895,"lo2":-89.0444,"dy":0.0017,"dx":0.0017,"nx":28,"ny":28,"refTime":"2023-08-06T03:00:00:Z","depth":0,"parameterNumber":3,"parameterNumberName":"V-component_of_WINDS"},"data":[0,0,0,0,0,0,0,0,0,0,0,0,0,0,0,0,0,0,0,0,0,0,0,0,0,0,0,0,0,0,0,0,0,0,0,0,0,0,0,0,0,0,0,0,0,0,0,0,0,0,0,0,0,0,0,0,0,0,1.8481,1.8481,0,1.8472,1.8472,1.8472,1.8485,1.8486,1.8486,1.8487,1.8475,1.8474,1.8474,0,0,0,0,0,0,0,0,0,0,0,0,0,1.8508,1.8508,1.8481,1.8481,1.8481,1.8472,1.8472,1.8471,1.8485,1.8486,1.8486,1.8487,1.8475,1.8474,1.8474,0,0,0,0,0,0,0,0,0,0,0,0,0,1.8497,1.8507,1.8481,1.8487,1.8487,1.8472,1.8472,1.8471,1.8485,1.8486,1.8486,1.8487,1.8476,1.8475,1.8473,1.8452,0,0,1.847,1.8469,0,0,0,0,0,0,0,0,1.8498,1.8496,1.8486,1.8486,1.8487,1.848,1.8477,1.8465,1.8485,1.8486,1.8487,1.8487,1.8476,1.8475,1.8472,1.8451,1.8451,1.847,1.8469,1.8469,1.8468,0,0,0,0,0,0,0,1.8499,1.8497,1.8477,1.8486,1.8486,1.8489,1.8488,1.8475,1.8477,1.8486,1.8487,1.8485,1.8476,1.8473,1.8471,1.8451,1.847,1.8469,1.8468,1.8468,1.8411,1.841,0,0,0,0,0,0,1.8499,1.8497,1.8478,1.8477,1.8494,1.8488,1.8487,1.8482,1.8477,1.8477,1.8485,1.8486,1.8474,1.8473,1.8471,1.8444,1.8469,1.8468,1.8467,1.8411,1.841,1.8409,0,0,0,0,0,0,1.85,1.8497,1.8478,1.8487,1.8485,1.8486,1.848,1.8481,1.8477,1.8476,1.8477,1.8481,1.8475,1.8473,1.8456,1.8444,1.8467,1.8466,1.8412,1.8411,1.841,1.8392,0,0,0,0,0,0,1.85,1.8497,1.849,1.8487,1.8485,1.8464,1.848,1.848,1.8476,1.8477,1.8473,1.8473,1.8475,1.8458,1.8455,1.8443,1.8465,1.8413,1.8412,1.841,1.8393,1.839,1.8387,0,0,0,0,0,1.8501,1.8485,1.8489,1.8487,1.8475,1.8463,1.8462,1.8466,1.8475,1.8466,1.8466,1.8473,1.8446,1.8456,1.8453,1.8441,1.8414,1.8412,1.841,1.8395,1.839,1.8387,0,0,0,0,0,0,1.8485,1.8485,1.849,1.8472,1.8468,1.8466,1.8456,1.8461,1.8454,1.8456,1.846,1.8459,1.8441,1.8439,1.8451,1.8419,1.8432,1.8429,1.842,1.8417,1.8413,1.8414,1.8464,0,0,0,0,0,1.848,1.8471,1.8471,1.8455,1.8453,1.8454,1.8449,1.8453,1.8448,1.8446,1.8445,1.8439,1.843,1.8423,1.8414,1.8393,1.8392,1.8383,1.838,1.8377,1.8375,1.8362,1.8358,1.8403,1.8403,1.8403,0,0,1.8468,1.8467,1.8461,1.8452,1.8449,1.8438,1.8453,1.8442,1.8434,1.8444,1.8429,1.8427,1.8421,1.8402,1.8394,1.84,1.8362,1.8375,1.8373,1.8371,1.8359,1.8355,1.8351,1.8402,1.8402,1.8402,0,0,1.8442,1.844,1.8427,1.8423,1.8419,1.842,1.8417,1.8414,1.8413,1.8398,1.8405,1.8396,1.8379,1.8374,1.837,1.8341,1.8346,1.8338,1.8321,1.8308,1.8305,1.8302,1.829,1.8286,1.8335,1.8335,1.8335,0,1.8428,1.8413,1.8419,1.8407,1.8402,1.8412,1.8397,1.8394,1.8386,1.8382,1.839,1.8369,1.8366,1.8345,1.8337,1.8334,1.8329,1.8338,1.8305,1.8302,1.8299,1.8288,1.8283,1.8334,1.8334,1.8334,1.8335,0,1.8396,1.8385,1.8375,1.8368,1.8362,1.8348,1.8351,1.8344,1.8348,1.8348,1.8331,1.8328,1.8318,1.8313,1.8317,1.8293,1.8297,1.8305,1.8317,1.8293,1.8283,1.8279,1.8333,1.8333,1.8333,1.8334,0,0,1.8358,1.8354,1.835,1.8347,1.8342,1.8334,1.8321,1.8311,1.8305,1.8299,1.8287,1.8273,1.828,1.8275,1.8278,1.8267,1.8242,1.8276,1.8276,1.8269,1.8214,1.8207,1.8202,1.8247,1.8246,1.8245,1.8214,0,1.8331,1.8309,1.8313,1.8291,1.8281,1.8289,1.8278,1.8273,1.8273,1.8263,1.8263,1.8252,1.8263,1.8259,1.8249,1.8248,1.8231,1.825,1.8234,1.8233,1.8234,1.8197,1.819,1.8161,1.821,1.8209,1.8209,0,1.8296,1.8289,1.8266,1.8262,1.8258,1.8248,1.8239,1.8231,1.8225,1.8225,1.8219,1.8224,1.8209,1.8223,1.8203,1.8215,1.8209,1.8207,1.8206,1.8204,1.8219,1.8192,1.8152,1.8147,1.8203,1.8203,1.8204,0,1.8269,1.8255,1.8239,1.8236,1.8231,1.8223,1.8221,1.8216,1.821,1.8203,1.8198,1.8189,1.8183,1.8175,1.8177,1.8187,1.8155,1.8169,1.8154,1.8154,1.8146,1.8146,1.8102,1.8144,1.8144,1.8144,1.8144,0,1.8238,1.8223,1.8227,1.8217,1.82,1.8205,1.8188,1.8186,1.8182,1.8171,1.8178,1.8168,1.8171,1.816,1.8161,1.8143,1.8141,1.814,1.814,1.8138,1.8138,1.8134,1.8135,1.8143,1.8143,1.8143,1.8143,0,1.8205,1.8207,1.819,1.8187,1.8186,1.8174,1.8171,1.8161,1.8161,1.8147,1.8144,1.8144,1.8132,1.8133,1.8119,1.8119,1.8097,1.81,1.8098,1.8099,1.8083,1.8084,1.8033,1.8026,1.8073,1.8073,1.8073,0,1.8184,1.8173,1.8169,1.8162,1.816,1.8149,1.8143,1.8147,1.814,1.8132,1.8123,1.8111,1.8102,1.8082,1.808,1.8068,1.8071,1.8054,1.8069,1.8067,1.8069,1.8069,1.8067,1.805,1.805,1.8049,1.8049,0,1.8146,1.8148,1.8139,1.813,1.8123,1.8116,1.811,1.8104,1.8107,1.8098,1.8086,1.8079,1.8065,1.8052,1.8042,1.8038,1.8043,1.8044,1.804,1.8038,1.8037,1.8036,1.8089,1.8045,1.8046,1.8046,1.8046,1.8046,1.8118,1.8108,1.8103,1.8093,1.8089,1.8083,1.8073,1.8072,1.8062,1.8051,1.8054,1.8039,1.8033,1.8019,1.8015,1.8003,1.8009,1.8003,1.8001,1.7999,1.7997,1.804,1.8001,1.8001,1.8001,1.8001,1.8001,0,1.8079,1.8076,1.8067,1.8058,1.805,1.8057,1.805,1.8042,1.8029,1.8024,1.8014,1.8,1.7988,1.7985,1.7973,1.7964,1.7966,1.796,1.796,1.7959,1.7993,1.7997,1.7959,1.7959,1.7959,1.7959,1.7959,1.7959,1.8057,1.8041,1.8042,1.8022,1.802,1.8006,1.8002,1.7996,1.7991,1.7974,1.7965,1.7963,1.7958,1.7946,1.7934,1.7934,1.7928,1.7922,1.7922,1.7953,1.7957,1.7961,1.7965,1.7921,1.7921,1.7889,1.7889,1.7889]}]]